TimeEST,TemperatureF,Dew PointF,Humidity,Sea Level PressureIn,VisibilityMPH,Wind Direction,Wind SpeedMPH,Gust SpeedMPH,PrecipitationIn,Events,Conditions,WindDirDegrees,DateUTC
12:54 AM,34.0,34.0,100,29.86,4.0,East,18.4,-,0.12,Rain,Rain,100,2014-02-21 05:54:00
1:14 AM,33.8,33.8,100,29.82,3.0,East,15.0,-,0.07,Rain,Rain,90,2014-02-21 06:14:00
1:54 AM,34.0,34.0,100,29.82,4.0,East,15.0,-,0.18,Rain,Rain,90,2014-02-21 06:54:00
2:54 AM,34.0,34.0,100,29.78,10.0,East,11.5,-,0.01,,Overcast,90,2014-02-21 07:54:00
3:54 AM,35.1,33.1,92,29.76,10.0,East,17.3,-,0.00,Rain,Light Rain,90,2014-02-21 08:54:00
4:54 AM,34.0,30.0,85,29.76,10.0,East,17.3,-,0.00,,Overcast,90,2014-02-21 09:54:00
5:54 AM,34.0,30.0,85,29.73,10.0,East,17.3,-,N/A,,Overcast,100,2014-02-21 10:54:00
6:54 AM,35.1,34.0,96,29.70,10.0,ENE,15.0,-,0.00,Rain,Light Rain,70,2014-02-21 11:54:00
7:54 AM,36.0,35.1,97,29.66,10.0,ENE,13.8,-,0.00,,Overcast,70,2014-02-21 12:54:00
8:54 AM,37.9,36.0,93,29.61,10.0,East,12.7,20.7,N/A,,Overcast,80,2014-02-21 13:54:00
9:54 AM,39.0,37.0,93,29.61,10.0,NE,11.5,-,N/A,,Overcast,50,2014-02-21 14:54:00
10:24 AM,41.0,39.2,93,29.61,10.0,ESE,6.9,-,0.00,Rain,Light Rain,120,2014-02-21 15:24:00
10:33 AM,39.2,37.4,93,29.58,6.0,NE,6.9,-,0.01,Rain,Light Rain,50,2014-02-21 15:33:00
10:54 AM,45.0,42.1,90,29.60,10.0,SE,9.2,16.1,0.01,Rain,Light Rain,140,2014-02-21 15:54:00
11:16 AM,44.6,42.8,93,29.58,4.0,ESE,9.2,-,0.01,Rain,Rain,120,2014-02-21 16:16:00
11:18 AM,44.6,42.8,93,29.58,2.5,ESE,10.4,-,0.02,Rain,Heavy Rain,110,2014-02-21 16:18:00
11:35 AM,42.8,41.0,93,29.59,2.0,East,6.9,-,0.07,Rain,Heavy Rain,100,2014-02-21 16:35:00
11:46 AM,42.8,42.8,100,29.59,1.2,NW,5.8,-,0.12,Rain,Heavy Rain,310,2014-02-21 16:46:00
11:54 AM,37.9,37.9,100,29.60,1.2,NNW,8.1,-,0.15,Rain,Rain,330,2014-02-21 16:54:00
12:14 PM,37.4,37.4,100,29.65,1.2,WNW,12.7,-,0.07,Rain,Heavy Rain,290,2014-02-21 17:14:00
12:28 PM,37.4,37.4,100,29.66,2.0,WNW,18.4,27.6,0.13,Rain,Heavy Rain,300,2014-02-21 17:28:00
12:44 PM,35.6,35.6,100,29.67,3.0,WNW,12.7,-,0.19,Rain,Heavy Rain,300,2014-02-21 17:44:00
12:54 PM,36.0,36.0,100,29.69,5.0,WNW,11.5,-,0.20,Rain,Light Rain,290,2014-02-21 17:54:00
1:03 PM,35.6,35.6,100,29.68,9.0,WSW,52.9,76.0,0.01,Rain,Light Rain,240,2014-02-21 18:03:00
1:14 PM,35.6,35.6,100,29.68,5.0,NW,11.5,-,0.01,Rain,Light Rain,310,2014-02-21 18:14:00
1:20 PM,35.6,35.6,100,29.69,2.5,North,-9999.0,-,0.01,Rain,Light Rain,0,2014-02-21 18:20:00
1:36 PM,35.6,35.6,100,29.69,2.5,West,5.8,-,0.03,Rain,Light Rain,270,2014-02-21 18:36:00
1:46 PM,35.6,35.6,100,29.70,2.0,West,6.9,-,0.04,Rain,Light Rain,270,2014-02-21 18:46:00
1:50 PM,35.6,35.6,100,29.69,3.0,West,4.6,-,0.04,Rain,Light Rain,270,2014-02-21 18:50:00
1:54 PM,35.1,35.1,100,29.70,4.0,West,6.9,-,0.05,Rain,Light Rain,270,2014-02-21 18:54:00
2:04 PM,35.6,35.6,100,29.69,2.5,West,4.6,-,0.00,Rain,Light Rain,260,2014-02-21 19:04:00
2:22 PM,35.6,35.6,100,29.69,4.0,West,3.5,-,0.00,Rain,Light Rain,270,2014-02-21 19:22:00
2:35 PM,35.6,35.6,100,29.68,8.0,Calm,Calm,-,0.01,Rain,Light Rain,0,2014-02-21 19:35:00
2:54 PM,35.1,34.0,96,29.69,10.0,ESE,4.6,-,0.01,,Overcast,120,2014-02-21 19:54:00
3:54 PM,36.0,36.0,100,29.71,10.0,Calm,Calm,-,N/A,,Mostly Cloudy,0,2014-02-21 20:54:00
4:54 PM,37.9,34.0,86,29.70,10.0,SE,5.8,-,N/A,,Scattered Clouds,140,2014-02-21 21:54:00
5:54 PM,39.9,32.0,73,29.70,10.0,South,3.5,-,N/A,,Overcast,170,2014-02-21 22:54:00
6:54 PM,39.0,30.9,73,29.71,10.0,South,5.8,-,N/A,,Overcast,180,2014-02-21 23:54:00
7:54 PM,39.0,30.9,73,29.73,10.0,South,6.9,-,N/A,,Overcast,190,2014-02-22 00:54:00
8:54 PM,35.1,33.1,92,29.76,10.0,Calm,Calm,-,N/A,,Overcast,0,2014-02-22 01:54:00
9:54 PM,39.9,24.1,53,29.76,10.0,WSW,11.5,-,N/A,,Partly Cloudy,240,2014-02-22 02:54:00
10:54 PM,39.0,24.1,55,29.76,10.0,SSW,11.5,-,N/A,,Partly Cloudy,210,2014-02-22 03:54:00
11:54 PM,39.0,21.9,50,29.77,10.0,SW,15.0,-,N/A,,Clear,220,2014-02-22 04:54:00